Location: Unspecified
(0.0000°N, 0.0000°E)
Time: 17:59:13
(UTC+00:00)

STARLINK 1025 - Pass Details

Date: 18 January 2020
Orbit: 346 x 354 km, 53.0° (Epoch: 18 January)

Event Time Altitude Azimuth Distance (km) Brightness Sun altitude
Exits shadow 04:16:31 - 176° (S) 1,842 6.6 -26.4°
Reaches altitude 10° 04:18:38 10° 149° (SSE) 1,294 6.2 -26.0°
Maximum altitude 04:19:47 12° 125° (SE) 1,194 6.3 -25.7°
Drops below altitude 10° 04:20:56 10° 101° (E) 1,292 6.5 -25.4°
Sets 04:23:54 0° 66° (ENE) 2,129 7.3 -24.7°
